星链-2385 (STARLINK-2385 )

导读 | 星芒AI

STARLINK-2385 是 SpaceX Starlink 卫星互联网项目中的第2385颗卫星,属于低轨卫星群的一部分,旨在为全球用户提供高速互联网服务。该卫星于2023年发射,运行在约550公里高的近地轨道,采用先进的通信技术和星间链路,提升网络覆盖与传输效率。Starlink 项目致力于改善偏远地区的网络接入,同时支持多种应用场景,包括应急通信和移动连接。

基本信息
目录编号:
47804
目录名称:
STARLINK-2385
国际标识:
2021-018T
轨道中心:
EARTH
卫星名称:
星链-2385
卫星全名:
星链-2385 (STARLINK-2385 )
卫星状态:
在轨 (已飞行1694 天)
发射日期:
2021-03-11 UTC
国别 :
美国 (US)
星等 :
--
轨道信息
数据来源 国际轨道数据 AOE轨道数据
星历时间 2025-10-30T01:52:40+0800
13小时前
查看轨道信息
2025-10-26T10:00:00+0800
4天前
查看轨道信息
半长轴 6925.347km 6925.388km
偏心率 0.0001309 0.000085
轨道倾角 53.054° 53.046°
近地点辐角 84.833° 105.680°
升交点赤经 99.450° 115.892°
平近点角 275.281° 186.602°
近地点 546.305km 546.664km
远地点 548.119km 547.842km
周期 95.592分钟 95.593分钟
每日圈数 15.064006 15.063874
详细信息
固有亮度:
5
最大亮度:
2.5
卫星平台:
Starlink V1.0
覆盖范围:
全球
运营商:
太空探索技术公司
运营商所在国:
美国
制造商(研发单位):
太空探索技术公司
制造商所在国:
美国
使用方式:
暂无
卫星简介
星链(Starlink)计划是由太空探索技术公司(SpaceX)提出的一个巨型低轨卫星互联网星座项目,计划在2019年至2024年间在太空搭建由约1.2万颗卫星组成的“星链”网络,其中1584颗将部署在地球上空550千米处的近地轨道,并从2020年开始工作。该卫星仍在工作。
2D轨道图
3D轨道图
轨道高度分析图
轨道倾角分析图
轨道综合分析图
查看轨道综合分析图